Weather in Arzubikha

Russia / Vologda Oblast     60°09′30″N   40°34′24″E
temp.,
°C
wind,
m/s
gust,
m/s
humid.,
%
clouds,
%
prec.,
mm/h
press.,
hPa
HPBL,
m
27 january, thu
thu2700:00−22sw11100100 0.0 10159
03:00−22sw11100100 0.0 101510
06:00−17ssw25100100 0.0 101391
09:00−14ssw2897100 0.0 1012165
12:00−11s3994100 0.0 1011280
15:00−10s41192100 0.0 1011412
18:00−10s41293100 0.0 1009436
21:00−10s41292100 0.0 1008444
28 january, fri
fri2800:00−11sse41392100 0.0 1008462
03:00−11sse41391100 0.0 1007497
06:00−11sse41292100 0.0 1006485
09:00−11sse41293100 0.2 1006479
12:00−10sse41292100 0.3 1006479
15:00−9sse41192100 0.4 1006510
18:00−10sse41192100 0.1 1006482
21:00−10sse41193100 0.2 1006482
29 january, sat
sat2900:00−10sse31094100 0.2 1006442
03:00−10sse3994100 0.4 1006414
06:00−10sse3895100 0.3 1005398
09:00−10sse2895100 0.5 1005348
12:00−8s2592100 0.3 1004406
15:00−8s2495100 0.6 1004360
18:00−10s1597100 0.1 1004120
21:00−11s129877 0.4 100340
30 january, sun
sun3000:00−16sse1110093 0.1 10029
03:00−18sse11100100 0.1 100111
06:00−14se259975 0.1 998102
09:00−16se269999 0.1 99787
12:00−10se31195100 0.1 995351
15:00−8se41293100 0.1 993489
18:00−8se51393100 0.1 993531
21:00−7se41292100 0.1 992598
31 january, mon
mon3100:00−7se41291100 0.1 992641
03:00−6ese41193100 0.2 992670
06:00−6ese41194100 0.3 991648
09:00−7ese41094100 0.8 992577
12:00−6ese4992100 0.1 992548
15:00−6ese3893100 0.3 993529
18:00−6e3995100 0.4 993478
21:00−6e3896100 1.3 993397